Flag for Canada Weather past 2 weeks in Toronto, Ontario, Canada

Now
41 °F

Overcast.


Feels Like: 33 °F
Forecast: 31 / 43 °F
Wind: 14 mph from West

Location: Toronto Pearson International Airport

Current Time: Dec 28, 2014 at 2:31:16 AM

Latest Report: Dec 28, 2014 at 2:00 AM


Visibility: 15 mi

Pressure: 29.86 "Hg

Humidity: 81%

Dew point: 36 °F

Location of TorontoLocation

Historic Weather in Toronto — Graph

°F

Toronto temperature yesterday

Maximum temperature yesterday: 50 °F (at 4:00 PM)
Minimum temperature yesterday: 37 °F (at 12:00 AM)
Average temperature yesterday: 43 °F

Past Weeks' High & Low Weather Summary

 TemperatureHumidityPressure
High50 °F (Dec 24, 8:00 PM)100% (Dec 14, 2:00 AM)30.35 "Hg (Dec 14, 2:00 AM)
Low21 °F (Dec 20, 4:00 AM)51% (Dec 20, 2:00 PM)29.18 "Hg (Dec 24, 11:00 PM)
Average36 °F84%30.01 "Hg
* Reported Dec 13 1:00 AM — Dec 28 1:00 AM, Toronto, Weather by CustomWeather, © 2014

Note: Actual official high and low records may vary slightly from our data, if they occured in-between our weather recording intervals... More about our weather records

Advertising

Toronto weather history for previous 24 hours

 ConditionsComfort  
Time TempWeatherWind HumidityBarometerVisibility
1:00 AM
Dec 28
41 °FLight rain. Overcast.17 mph81%29.87 "Hg15 mi
12:00 AM43 °FLight rain. Mostly cloudy.20 mph87%29.86 "Hg15 mi
11:00 PM
Dec 27
46 °FLight rain. Mostly cloudy.16 mph87%29.85 "Hg7 mi
10:00 PM48 °FOvercast.20 mph82%29.85 "Hg15 mi
9:00 PM46 °FLight rain. Overcast.20 mph87%29.86 "Hg15 mi
8:00 PM48 °FOvercast.29 mph82%29.90 "Hg15 mi
7:00 PM48 °FMostly cloudy.22 mph76%29.90 "Hg15 mi
6:00 PM48 °FPassing clouds.21 mph71%29.90 "Hg15 mi
5:00 PM50 °FMostly cloudy.25 mph67%29.92 "Hg15 mi
4:00 PM50 °FPartly sunny.12 mph71%29.93 "Hg15 mi
3:00 PM48 °FPartly sunny.12 mph76%29.92 "Hg15 mi
2:00 PM48 °FPartly sunny.9 mph71%29.95 "Hg15 mi
1:00 PM46 °FSprinkles. More clouds than sun.7 mph76%30.01 "Hg12 mi
12:00 PM45 °FPartly sunny.3 mph81%30.06 "Hg15 mi
11:00 AM43 °FOvercast.7 mph81%30.10 "Hg12 mi
10:00 AM41 °FOvercast.6 mph87%30.12 "Hg10 mi
9:00 AM39 °FPartly sunny.3 mph87%30.13 "Hg10 mi
8:00 AM39 °FOvercast.5 mph87%30.14 "Hg10 mi
7:00 AM39 °FOvercast.5 mph87%30.13 "Hg10 mi
6:00 AM37 °FOvercast.5 mph93%30.12 "Hg10 mi
5:00 AM37 °FOvercast.3 mph93%30.13 "Hg12 mi
4:00 AM37 °FOvercast.6 mph87%30.15 "Hg12 mi
3:00 AM37 °FOvercast.6 mph87%30.15 "Hg12 mi
2:00 AM37 °FOvercast.5 mph87%30.14 "Hg15 mi
Weather by CustomWeather, © 2014

See weather overviewHow to use our weather pages